Location: Unspecified
(52.4292°N, 19.3359°E)
Time: 00:29:02
(UTC+02:00)

Vanguard 1 Rocket - Pass Details

Date: 28 May 2024
Orbit: 649 x 4221 km, 34.3° (Epoch: 13 June)

Event Time Altitude Azimuth Distance (km) Brightness Sun altitude
Rises 06:31:21 0° 202° (SSW) 8,396 12.0 15.6°
Reaches altitude 10° 06:39:03 10° 191° (S) 7,413 11.8 16.8°
Maximum altitude 06:56:33 25° 148° (SSE) 5,633 11.8 19.4°
Drops below altitude 10° 07:10:05 10° 102° (ESE) 5,737 13.0 21.4°
Sets 07:14:50 0° 90° (E) 6,242 13.1 22.1°
